Location: Niverville
(49.6028°N, 97.0419°W)
Time: 17:23:12
(UTC-05:00)

ISS - All Passes

Search period start: 27 March 2017 00:00
Search period end: 06 April 2017 00:00
Orbit: 399 x 409 km, 51.6° (Epoch: 28 March)

Date Brightness Start Highest point End Pass type
(mag) Time Alt. Az. Time Alt. Az. Time Alt. Az.
27 Mar - 01:04:02 10° WNW 01:07:18 58° N 01:10:34 10° E night (unlit)
27 Mar - 02:40:35 10° WNW 02:43:53 72° SSW 02:47:10 10° ESE night (unlit)
27 Mar - 04:17:41 10° W 04:19:56 17° SW 04:22:10 10° S night (unlit)
27 Mar - 21:00:19 10° S 21:02:19 15° SE 21:04:20 10° E visible
27 Mar - 22:35:05 10° WSW 22:38:19 67° SSE 22:41:36 10° ENE visible
28 Mar - 00:11:38 10° W 00:14:53 59° N 00:18:09 10° ENE night (unlit)
28 Mar - 01:48:13 10° WNW 01:51:32 83° NNE 01:54:51 10° ESE night (unlit)
28 Mar - 03:24:56 10° W 03:27:46 27° SW 03:30:37 10° SSE night (unlit)
28 Mar - 21:42:54 10° SW 21:46:02 44° SSE 21:49:11 10° ENE visible
28 Mar - 23:19:12 10° W 23:22:28 65° N 23:25:45 10° ENE visible
29 Mar - 00:55:52 10° WNW 00:59:09 67° N 01:02:26 10° E night (unlit)
29 Mar - 02:32:26 10° WNW 02:35:34 42° SSW 02:38:41 10° SE night (unlit)
29 Mar - 20:50:56 10° SSW 20:53:48 28° SE 20:56:40 10° E visible
29 Mar - 22:26:48 10° WSW 22:30:03 80° NNW 22:33:22 10° ENE visible
30 Mar - 00:03:28 10° WNW 00:06:43 59° N 00:09:59 10° E night (unlit)
30 Mar - 01:40:00 10° WNW 01:43:16 63° SSW 01:46:32 10° ESE night (unlit)
30 Mar - 03:17:21 10° WSW 03:19:15 15° SW 03:21:08 10° S night (unlit)
30 Mar - 19:59:18 10° S 20:01:37 18° SE 20:03:56 10° E daylight
30 Mar - 21:34:25 10° WSW 21:37:41 76° SSE 21:40:57 10° ENE visible
30 Mar - 23:11:01 10° W 23:14:16 58° N 23:17:31 10° E visible
31 Mar - 00:47:36 10° WNW 00:50:53 89° SW 00:54:12 10° ESE night (unlit)
31 Mar - 02:24:24 10° W 02:27:05 23° SW 02:29:45 10° SSE night (unlit)
31 Mar - 19:08:33 10° SSE 19:09:29 11° SE 19:10:25 10° ESE daylight
31 Mar - 20:42:10 10° SW 20:45:20 51° SSE 20:48:32 10° ENE visible
31 Mar - 22:18:34 10° W 22:21:49 62° N 22:25:05 10° ENE visible
31 Mar - 23:55:12 10° WNW 23:58:29 72° NNE 00:01:47 10° E visible
01 Apr - 01:31:47 10° W 01:34:50 36° SSW 01:37:53 10° SE night (unlit)
01 Apr - 19:50:05 10° SSW 19:53:02 33° SSE 19:56:02 10° E daylight
01 Apr - 21:26:06 10° W 21:29:21 74° NNW 21:32:39 10° ENE visible
01 Apr - 23:02:47 10° WNW 23:06:01 61° N 23:09:17 10° E visible
02 Apr - 00:39:18 10° WNW 00:42:31 55° SSW 00:45:45 10° SE night (unlit)
02 Apr - 02:17:02 10° WSW 02:18:26 12° SW 02:19:50 10° SSW night (unlit)
02 Apr - 18:58:16 10° SSW 19:00:47 21° SE 19:03:20 10° E daylight
02 Apr - 20:33:40 10° WSW 20:36:56 85° SSE 20:40:13 10° ENE visible
02 Apr - 22:10:18 10° W 22:13:33 57° N 22:16:48 10° E visible
02 Apr - 23:46:51 10° WNW 23:50:09 81° SSW 23:53:26 10° ESE visible
03 Apr - 01:23:47 10° W 01:26:16 20° SW 01:28:43 10° S night (unlit)
03 Apr - 18:07:01 10° SSE 18:08:36 13° SE 18:10:12 10° ESE daylight
03 Apr - 19:41:20 10° SW 19:44:32 59° SSE 19:47:46 10° ENE daylight
03 Apr - 21:17:49 10° W 21:21:03 60° N 21:24:18 10° ENE visible
03 Apr - 22:54:25 10° WNW 22:57:42 77° NNE 23:00:59 10° ESE visible
04 Apr - 00:31:03 10° W 00:34:00 31° SSW 00:36:57 10° SSE night (unlit)
04 Apr - 18:49:08 10° SW 18:52:11 38° SSE 18:55:15 10° E daylight
04 Apr - 20:25:18 10° W 20:28:33 69° NNW 20:31:50 10° ENE daylight
04 Apr - 22:01:58 10° WNW 22:05:13 64° N 22:08:30 10° E visible
04 Apr - 23:38:29 10° WNW 23:41:41 48° SSW 23:44:51 10° SE visible
05 Apr - 01:17:08 10° SW 01:17:31 10° SW 01:17:52 10° SW night (unlit)
05 Apr - 17:57:10 10° SSW 17:59:52 24° SE 18:02:35 10° E daylight
05 Apr - 19:32:49 10° WSW 19:36:04 87° NNW 19:39:21 10° ENE daylight
05 Apr - 21:09:28 10° WNW 21:12:43 58° N 21:15:57 10° E visible
05 Apr - 22:46:00 10° WNW 22:49:16 72° SSW 22:52:32 10° ESE visible
